EZY62HG EGKK-LEPA

Flight info

Callsign EZY62HG
Flight time 1h 54m
Altitude 33000
Route SFD Y47 DRAKE/N0429F330 L151 SITET UN859 SOPIL DCT BALAN DCT EVPOK DCT NARAK DCT GAI DCT LOMRA DCT ROCAN DCT IBRAP DCT LUKEV DCT LORES
Aircraft A320/M-SDE3FGHIRWY/LB1

Departure

Time 2026-05-03 21:09
Airport London Gatwick Airport (EGKK)

Arrival

Time 2026-05-03 23:04
Airport Palma de Mallorca Airport (LEPA)
Time Latitude Longitude Altitude Speed Heading
2026-05-03 20:24 51.16277 -0.18089 204 ft 0 kts 78°
2026-05-03 20:50 51.16276 -0.18096 213 ft 3 kts 78°
2026-05-03 20:51 51.16270 -0.18138 209 ft 4 kts 78°
2026-05-03 20:51 51.16265 -0.18166 216 ft 4 kts 41°
2026-05-03 20:51 51.16248 -0.18193 216 ft 4 kts 64°
2026-05-03 20:51 51.16249 -0.18216 213 ft 4 kts 153°
2026-05-03 20:52 51.16273 -0.18228 212 ft 4 kts 168°
2026-05-03 20:52 51.16279 -0.18230 213 ft 0 kts 168°
2026-05-03 20:55 51.16270 -0.18227 204 ft 4 kts 168°
2026-05-03 20:55 51.16223 -0.18211 204 ft 10 kts 168°
2026-05-03 20:56 51.16139 -0.18181 206 ft 14 kts 168°
2026-05-03 20:56 51.16038 -0.18147 204 ft 16 kts 168°
2026-05-03 20:56 51.15930 -0.18109 208 ft 17 kts 167°
2026-05-03 20:56 51.15814 -0.18069 213 ft 18 kts 168°
2026-05-03 20:57 51.15751 -0.18047 204 ft 0 kts 168°
2026-05-03 20:59 51.15708 -0.18021 212 ft 11 kts 140°
2026-05-03 21:00 51.15708 -0.17893 209 ft 13 kts 78°
2026-05-03 21:00 51.15716 -0.17843 204 ft 14 kts 77°
2026-05-03 21:00 51.15754 -0.17559 208 ft 11 kts 78°
2026-05-03 21:00 51.15704 -0.17490 215 ft 12 kts 166°
2026-05-03 21:01 51.15612 -0.17460 204 ft 15 kts 168°
2026-05-03 21:01 51.15499 -0.17422 211 ft 18 kts 168°
2026-05-03 21:01 51.15366 -0.17374 214 ft 21 kts 167°
2026-05-03 21:01 51.15226 -0.17288 206 ft 22 kts 144°
2026-05-03 21:02 51.15187 -0.17151 204 ft 16 kts 78°
2026-05-03 21:02 51.15209 -0.16981 204 ft 0 kts 78°
2026-05-03 21:06 51.15210 -0.16980 204 ft 1 kts 78°
2026-05-03 21:07 51.15220 -0.16905 208 ft 10 kts 78°
2026-05-03 21:07 51.15221 -0.16894 208 ft 0 kts 78°
2026-05-03 21:08 51.15224 -0.16876 204 ft 7 kts 78°
2026-05-03 21:08 51.15167 -0.16784 214 ft 16 kts 174°
2026-05-03 21:08 51.15110 -0.16880 202 ft 7 kts 260°
2026-05-03 21:08 51.15085 -0.17076 209 ft 45 kts 258°
2026-05-03 21:09 51.14951 -0.18023 210 ft 129 kts 257°
2026-05-03 21:09 51.14721 -0.19731 477 ft 170 kts 257°
2026-05-03 21:09 51.14466 -0.21607 1392 ft 177 kts 257°
2026-05-03 21:09 51.14189 -0.23613 1911 ft 195 kts 257°
2026-05-03 21:10 51.13874 -0.25856 2244 ft 218 kts 257°
2026-05-03 21:10 51.13537 -0.28256 2958 ft 225 kts 257°
2026-05-03 21:10 51.13192 -0.30701 3753 ft 228 kts 256°
2026-05-03 21:10 51.12843 -0.33183 4566 ft 231 kts 256°
2026-05-03 21:11 51.12490 -0.35699 5370 ft 234 kts 256°
2026-05-03 21:11 51.12129 -0.38239 6177 ft 236 kts 253°
2026-05-03 21:11 51.11370 -0.40532 6915 ft 237 kts 224°
2026-05-03 21:11 51.09963 -0.41854 7646 ft 239 kts 193°
2026-05-03 21:12 51.08301 -0.41919 8421 ft 242 kts 176°
2026-05-03 21:12 51.06586 -0.41689 8983 ft 257 kts 176°
2026-05-03 21:12 51.04730 -0.41439 9405 ft 275 kts 176°
2026-05-03 21:12 51.02800 -0.41186 10112 ft 281 kts 176°
2026-05-03 21:13 51.00839 -0.40935 10846 ft 284 kts 176°
2026-05-03 21:13 50.98861 -0.40685 11614 ft 286 kts 176°
2026-05-03 21:13 50.96865 -0.40430 12386 ft 289 kts 176°
2026-05-03 21:13 50.94859 -0.40173 13161 ft 291 kts 176°
2026-05-03 21:14 50.92830 -0.39915 13902 ft 293 kts 176°
2026-05-03 21:14 50.90814 -0.39659 14551 ft 296 kts 177°
2026-05-03 21:14 50.88752 -0.39402 15201 ft 299 kts 177°
2026-05-03 21:14 50.86670 -0.39140 15856 ft 302 kts 177°
2026-05-03 21:15 50.84561 -0.38790 16322 ft 313 kts 169°
2026-05-03 21:15 50.82388 -0.37843 16458 ft 334 kts 166°
2026-05-03 21:15 50.80113 -0.36796 16815 ft 345 kts 166°
2026-05-03 21:15 50.77796 -0.35716 17407 ft 349 kts 166°
2026-05-03 21:16 50.75455 -0.34617 18011 ft 353 kts 166°
2026-05-03 21:16 50.73095 -0.33505 18572 ft 356 kts 166°
2026-05-03 21:16 50.70717 -0.32380 19130 ft 358 kts 166°
2026-05-03 21:16 50.68325 -0.31245 19698 ft 360 kts 166°
2026-05-03 21:17 50.66701 -0.30476 20084 ft 361 kts 166°
2026-05-03 21:17 50.64289 -0.29343 20648 ft 363 kts 166°
2026-05-03 21:17 50.61068 -0.27843 21400 ft 366 kts 166°
2026-05-03 21:17 50.58619 -0.26705 21966 ft 368 kts 167°
2026-05-03 21:18 50.56161 -0.25562 22525 ft 370 kts 167°
2026-05-03 21:18 50.53684 -0.24405 23089 ft 372 kts 167°
2026-05-03 21:18 50.51195 -0.23242 23604 ft 374 kts 167°
2026-05-03 21:18 50.49540 -0.22472 23906 ft 376 kts 167°
2026-05-03 21:19 50.47026 -0.21306 24344 ft 378 kts 167°
2026-05-03 21:19 50.44499 -0.20128 24786 ft 380 kts 167°
2026-05-03 21:19 50.41960 -0.18942 25203 ft 381 kts 167°
2026-05-03 21:19 50.39412 -0.17757 25624 ft 383 kts 167°
2026-05-03 21:20 50.36849 -0.16575 26034 ft 385 kts 167°
2026-05-03 21:20 50.34277 -0.15390 26426 ft 387 kts 167°
2026-05-03 21:20 50.31691 -0.14197 26825 ft 388 kts 167°
2026-05-03 21:20 50.29088 -0.12997 27205 ft 390 kts 167°
2026-05-03 21:21 50.26479 -0.11794 27580 ft 392 kts 167°
2026-05-03 21:21 50.23856 -0.10586 27944 ft 394 kts 167°
2026-05-03 21:21 50.21223 -0.09375 28317 ft 396 kts 167°
2026-05-03 21:21 50.18573 -0.08158 28666 ft 397 kts 168°
2026-05-03 21:22 50.15916 -0.06939 29041 ft 399 kts 168°
2026-05-03 21:22 50.13251 -0.05715 29397 ft 400 kts 168°
2026-05-03 21:22 50.10573 -0.04487 29741 ft 402 kts 168°
2026-05-03 21:22 50.07882 -0.03257 30055 ft 404 kts 168°
2026-05-03 21:23 50.05182 -0.02026 30314 ft 405 kts 168°
2026-05-03 21:23 50.02469 -0.00789 30554 ft 407 kts 168°
2026-05-03 21:23 49.99744 0.00456 30797 ft 409 kts 168°
2026-05-03 21:23 49.97014 0.01703 31049 ft 410 kts 168°
2026-05-03 21:24 49.94275 0.02952 31329 ft 410 kts 168°
2026-05-03 21:24 49.91541 0.04195 31699 ft 408 kts 169°
2026-05-03 21:24 49.88815 0.05428 32056 ft 407 kts 169°
2026-05-03 21:24 49.86103 0.06654 32405 ft 406 kts 169°
2026-05-03 21:25 49.83395 0.07877 32750 ft 405 kts 169°
2026-05-03 21:25 49.80689 0.09098 32925 ft 403 kts 169°
2026-05-03 21:25 49.78036 0.10302 32962 ft 392 kts 169°
2026-05-03 21:25 49.75417 0.11488 33019 ft 395 kts 169°
2026-05-03 21:26 49.72765 0.12680 33226 ft 398 kts 169°
2026-05-03 21:26 49.70107 0.13873 33557 ft 397 kts 169°
2026-05-03 21:26 49.67455 0.15064 33911 ft 397 kts 169°
2026-05-03 21:26 49.64806 0.16252 34196 ft 396 kts 169°
2026-05-03 21:27 49.62155 0.17437 34433 ft 397 kts 169°
2026-05-03 21:27 49.59499 0.18622 34639 ft 398 kts 169°
2026-05-03 21:27 49.56832 0.19809 34834 ft 399 kts 169°
2026-05-03 21:27 49.54158 0.20999 35036 ft 400 kts 169°
2026-05-03 21:28 49.51480 0.22192 35224 ft 401 kts 169°
2026-05-03 21:28 49.48800 0.23389 35468 ft 401 kts 169°
2026-05-03 21:28 49.46123 0.24587 35647 ft 401 kts 168°
2026-05-03 21:28 49.43435 0.25785 35818 ft 402 kts 168°
2026-05-03 21:29 49.40741 0.26981 35993 ft 403 kts 168°
2026-05-03 21:29 49.38044 0.28179 36168 ft 404 kts 168°
2026-05-03 21:29 49.35337 0.29383 36344 ft 405 kts 168°
2026-05-03 21:29 49.32661 0.30569 36493 ft 406 kts 168°
2026-05-03 21:30 49.29941 0.31768 36644 ft 407 kts 168°
2026-05-03 21:30 49.27216 0.32939 36840 ft 407 kts 169°
2026-05-03 21:30 49.24483 0.34087 36941 ft 408 kts 169°
2026-05-03 21:30 49.21742 0.35234 36954 ft 408 kts 169°
2026-05-03 21:31 49.16267 0.37523 36953 ft 408 kts 169°
2026-05-03 21:31 49.10773 0.39815 36953 ft 411 kts 169°
2026-05-03 21:32 49.05253 0.42125 36955 ft 411 kts 169°
2026-05-03 21:32 48.99735 0.44442 36929 ft 411 kts 169°
2026-05-03 21:33 48.94223 0.46746 36939 ft 411 kts 169°
2026-05-03 21:33 48.88708 0.49034 36945 ft 411 kts 169°
2026-05-03 21:34 48.83196 0.51316 36951 ft 410 kts 169°
2026-05-03 21:34 48.77684 0.53596 36952 ft 410 kts 169°
2026-05-03 21:35 48.72167 0.55779 36956 ft 410 kts 170°
2026-05-03 21:35 48.66641 0.57905 36957 ft 410 kts 170°
2026-05-03 21:36 48.61115 0.60042 36951 ft 410 kts 170°
2026-05-03 21:36 48.55572 0.62205 36960 ft 415 kts 170°
2026-05-03 21:37 48.49928 0.64430 36962 ft 423 kts 170°
2026-05-03 21:37 48.44204 0.66755 36961 ft 429 kts 169°
2026-05-03 21:38 48.38438 0.69126 36959 ft 430 kts 169°
2026-05-03 21:38 48.32657 0.71485 36962 ft 430 kts 169°
2026-05-03 21:39 48.26920 0.73802 36965 ft 430 kts 170°
2026-05-03 21:39 48.21134 0.76111 36956 ft 430 kts 170°
2026-05-03 21:40 48.15344 0.78384 36959 ft 430 kts 170°
2026-05-03 21:40 48.09555 0.80648 36971 ft 430 kts 170°
2026-05-03 21:41 48.03762 0.82913 36960 ft 430 kts 170°
2026-05-03 21:41 47.97965 0.85171 36943 ft 431 kts 170°
2026-05-03 21:42 47.92158 0.87426 36941 ft 431 kts 170°
2026-05-03 21:42 47.86347 0.89682 36943 ft 432 kts 170°
2026-05-03 21:43 47.80526 0.91947 36959 ft 433 kts 170°
2026-05-03 21:43 47.74700 0.94217 36948 ft 432 kts 170°
2026-05-03 21:44 47.68879 0.96465 36949 ft 432 kts 170°
2026-05-03 21:44 47.63057 0.98703 36958 ft 432 kts 170°
2026-05-03 21:45 47.57232 1.00942 36956 ft 432 kts 171°
2026-05-03 21:45 47.51409 1.03180 36968 ft 432 kts 171°
2026-05-03 21:46 47.45591 1.05410 36970 ft 432 kts 171°
2026-05-03 21:46 47.39714 1.06394 36971 ft 422 kts 185°
2026-05-03 21:47 47.33846 1.06241 36969 ft 422 kts 185°
2026-05-03 21:47 47.27973 1.06096 36972 ft 422 kts 185°
2026-05-03 21:48 47.22096 1.05963 36971 ft 422 kts 185°
2026-05-03 21:48 47.16224 1.05824 36967 ft 422 kts 185°
2026-05-03 21:49 47.10350 1.05677 36970 ft 422 kts 185°
2026-05-03 21:49 47.04472 1.05541 36972 ft 423 kts 185°
2026-05-03 21:50 46.98593 1.05378 36975 ft 422 kts 186°
2026-05-03 21:50 46.92726 1.05111 36975 ft 422 kts 186°
2026-05-03 21:51 46.86893 1.04832 36977 ft 422 kts 186°
2026-05-03 21:51 46.81018 1.04567 36979 ft 422 kts 186°
2026-05-03 21:52 46.75143 1.04315 36982 ft 423 kts 186°
2026-05-03 21:52 46.69264 1.04065 36986 ft 423 kts 186°
2026-05-03 21:53 46.63386 1.03827 36989 ft 423 kts 186°
2026-05-03 21:53 46.57512 1.03578 36988 ft 423 kts 186°
2026-05-03 21:54 46.51615 1.03517 36981 ft 427 kts 178°
2026-05-03 21:54 46.45743 1.05278 36985 ft 432 kts 172°
2026-05-03 21:55 46.39881 1.07250 36990 ft 433 kts 172°
2026-05-03 21:55 46.34014 1.09214 36981 ft 433 kts 172°
2026-05-03 21:56 46.28151 1.11166 36997 ft 433 kts 172°
2026-05-03 21:56 46.22286 1.13113 37017 ft 433 kts 172°
2026-05-03 21:57 46.16415 1.15064 37020 ft 433 kts 172°
2026-05-03 21:57 46.10552 1.17014 37025 ft 432 kts 172°
2026-05-03 21:58 46.04696 1.18945 37010 ft 432 kts 172°
2026-05-03 21:58 45.98829 1.20869 37013 ft 432 kts 172°
2026-05-03 21:59 45.92959 1.22787 37004 ft 433 kts 172°
2026-05-03 21:59 45.87091 1.24708 37013 ft 433 kts 172°
2026-05-03 22:00 45.81213 1.26639 37017 ft 433 kts 172°
2026-05-03 22:00 45.75341 1.28570 37011 ft 433 kts 172°
2026-05-03 22:01 45.69460 1.30482 37020 ft 434 kts 172°
2026-05-03 22:01 45.63577 1.32387 37023 ft 434 kts 172°
2026-05-03 22:02 45.57727 1.34290 37019 ft 434 kts 172°
2026-05-03 22:02 45.51788 1.36211 37002 ft 435 kts 172°
2026-05-03 22:03 45.45916 1.38105 37007 ft 436 kts 172°
2026-05-03 22:03 45.39959 1.40026 37014 ft 436 kts 172°
2026-05-03 22:04 45.34084 1.41916 37006 ft 437 kts 172°
2026-05-03 22:04 45.28152 1.43825 37013 ft 437 kts 172°
2026-05-03 22:05 45.23182 1.45412 37017 ft 437 kts 172°
2026-05-03 22:05 45.17238 1.47307 37011 ft 437 kts 172°
2026-05-03 22:06 45.11306 1.49203 37028 ft 437 kts 172°
2026-05-03 22:06 45.05382 1.51087 37032 ft 436 kts 173°
2026-05-03 22:07 44.99458 1.52966 36989 ft 436 kts 172°
2026-05-03 22:07 44.93540 1.54836 36997 ft 435 kts 172°
2026-05-03 22:08 44.87629 1.56703 37010 ft 435 kts 172°
2026-05-03 22:08 44.81721 1.58572 37019 ft 435 kts 172°
2026-05-03 22:09 44.75816 1.60440 37018 ft 435 kts 172°
2026-05-03 22:10 44.67010 1.63218 37014 ft 434 kts 172°
2026-05-03 22:10 44.61113 1.65056 37013 ft 434 kts 172°
2026-05-03 22:11 44.55221 1.66896 37001 ft 434 kts 172°
2026-05-03 22:11 44.49333 1.68733 37002 ft 433 kts 172°
2026-05-03 22:12 44.43443 1.70563 37000 ft 433 kts 172°
2026-05-03 22:12 44.37553 1.72394 36972 ft 434 kts 172°
2026-05-03 22:13 44.31660 1.74230 36972 ft 434 kts 172°
2026-05-03 22:13 44.25746 1.75908 36977 ft 433 kts 175°
2026-05-03 22:14 44.19798 1.77175 36968 ft 432 kts 176°
2026-05-03 22:14 44.13840 1.78360 36972 ft 433 kts 176°
2026-05-03 22:15 44.07887 1.79633 36975 ft 434 kts 175°
2026-05-03 22:15 44.01915 1.80969 36977 ft 434 kts 175°
2026-05-03 22:16 43.95956 1.82297 36967 ft 434 kts 175°
2026-05-03 22:16 43.89973 1.83199 36972 ft 432 kts 180°
2026-05-03 22:17 43.83982 1.83659 36970 ft 431 kts 181°
2026-05-03 22:17 43.77989 1.84095 36959 ft 431 kts 180°
2026-05-03 22:18 43.71991 1.84642 36958 ft 432 kts 180°
2026-05-03 22:18 43.66004 1.85243 36964 ft 432 kts 180°
2026-05-03 22:19 43.59998 1.85852 36951 ft 432 kts 180°
2026-05-03 22:19 43.54000 1.86441 36957 ft 433 kts 180°
2026-05-03 22:20 43.47988 1.87010 36963 ft 433 kts 180°
2026-05-03 22:20 43.41981 1.87576 36966 ft 433 kts 180°
2026-05-03 22:21 43.35968 1.88153 36962 ft 433 kts 180°
2026-05-03 22:21 43.29949 1.88728 36969 ft 434 kts 180°
2026-05-03 22:22 43.23926 1.89299 36977 ft 434 kts 180°
2026-05-03 22:22 43.17907 1.89878 36970 ft 434 kts 180°
2026-05-03 22:23 43.11880 1.90454 36977 ft 434 kts 180°
2026-05-03 22:23 43.05843 1.91032 36958 ft 434 kts 180°
2026-05-03 22:24 42.99811 1.91607 36947 ft 434 kts 180°
2026-05-03 22:24 42.93783 1.92180 36973 ft 435 kts 180°
2026-05-03 22:25 42.87747 1.92741 36976 ft 435 kts 180°
2026-05-03 22:25 42.81745 1.93299 36984 ft 435 kts 180°
2026-05-03 22:26 42.75653 1.93883 36995 ft 435 kts 180°
2026-05-03 22:26 42.69653 1.94456 36990 ft 435 kts 180°
2026-05-03 22:27 42.63666 1.95959 37001 ft 441 kts 169°
2026-05-03 22:27 42.57733 1.98103 37005 ft 441 kts 170°
2026-05-03 22:28 42.51799 2.00248 37017 ft 441 kts 170°
2026-05-03 22:28 42.45871 2.02384 37033 ft 441 kts 170°
2026-05-03 22:29 42.39943 2.04507 37039 ft 441 kts 170°
2026-05-03 22:29 42.34016 2.06634 37030 ft 441 kts 169°
2026-05-03 22:30 42.28093 2.08750 37032 ft 440 kts 170°
2026-05-03 22:30 42.22162 2.10856 37041 ft 440 kts 170°
2026-05-03 22:31 42.16243 2.12946 37030 ft 440 kts 169°
2026-05-03 22:31 42.10329 2.15026 37036 ft 440 kts 170°
2026-05-03 22:32 42.04422 2.17107 37045 ft 440 kts 170°
2026-05-03 22:32 41.98508 2.19194 37046 ft 440 kts 169°
2026-05-03 22:33 41.92583 2.21276 37029 ft 441 kts 170°
2026-05-03 22:33 41.86645 2.23352 37033 ft 441 kts 170°
2026-05-03 22:34 41.80714 2.25430 37040 ft 441 kts 170°
2026-05-03 22:34 41.74773 2.27509 37019 ft 441 kts 170°
2026-05-03 22:35 41.68831 2.29579 37026 ft 441 kts 170°
2026-05-03 22:35 41.62938 2.31626 37043 ft 441 kts 170°
2026-05-03 22:36 41.56964 2.33706 37049 ft 440 kts 170°
2026-05-03 22:36 41.51077 2.35759 37026 ft 440 kts 170°
2026-05-03 22:37 41.45157 2.37813 37012 ft 441 kts 170°
2026-05-03 22:37 41.39212 2.39873 37013 ft 442 kts 170°
2026-05-03 22:38 41.33266 2.41929 37017 ft 442 kts 170°
2026-05-03 22:38 41.27307 2.43978 36996 ft 442 kts 171°
2026-05-03 22:39 41.21339 2.46027 36999 ft 443 kts 170°
2026-05-03 22:39 41.15368 2.48080 37004 ft 444 kts 171°
2026-05-03 22:40 41.09387 2.50129 36993 ft 444 kts 171°
2026-05-03 22:40 41.03406 2.52171 37002 ft 444 kts 171°
2026-05-03 22:41 40.97424 2.54206 37005 ft 444 kts 171°
2026-05-03 22:41 40.91445 2.56244 37005 ft 444 kts 171°
2026-05-03 22:42 40.85499 2.58273 36981 ft 445 kts 172°
2026-05-03 22:42 40.79494 2.60307 36984 ft 446 kts 172°
2026-05-03 22:43 40.73475 2.62344 36990 ft 447 kts 172°
2026-05-03 22:43 40.67438 2.64393 36996 ft 448 kts 172°
2026-05-03 22:44 40.61397 2.66422 37000 ft 448 kts 172°
2026-05-03 22:44 40.55351 2.68451 36996 ft 448 kts 172°
2026-05-03 22:45 40.49355 2.70764 37005 ft 457 kts 160°
2026-05-03 22:45 40.43733 2.74764 36988 ft 460 kts 158°
2026-05-03 22:46 40.38125 2.78853 36991 ft 462 kts 158°
2026-05-03 22:46 40.32502 2.82937 36995 ft 462 kts 158°
2026-05-03 22:47 40.26869 2.86994 36998 ft 462 kts 158°
2026-05-03 22:47 40.21250 2.91048 36927 ft 456 kts 159°
2026-05-03 22:47 40.18497 2.93040 36157 ft 449 kts 159°
2026-05-03 22:48 40.15759 2.95009 34920 ft 450 kts 159°
2026-05-03 22:48 40.13033 2.96958 33413 ft 455 kts 159°
2026-05-03 22:48 40.10240 2.98947 31771 ft 458 kts 158°
2026-05-03 22:48 40.07440 3.00942 30190 ft 459 kts 157°
2026-05-03 22:49 40.04646 3.02936 28307 ft 458 kts 156°
2026-05-03 22:49 40.01841 3.04942 26295 ft 460 kts 156°
2026-05-03 22:49 39.99026 3.06955 24574 ft 460 kts 156°
2026-05-03 22:49 39.96234 3.08954 22995 ft 455 kts 156°
2026-05-03 22:50 39.93418 3.10703 21464 ft 441 kts 168°
2026-05-03 22:50 39.90462 3.11176 20116 ft 420 kts 186°
2026-05-03 22:50 39.87568 3.10952 18600 ft 418 kts 188°
2026-05-03 22:50 39.84720 3.10622 17131 ft 413 kts 189°
2026-05-03 22:51 39.81884 3.10258 15752 ft 407 kts 189°
2026-05-03 22:51 39.79084 3.09899 14461 ft 401 kts 189°
2026-05-03 22:51 39.76341 3.09548 13651 ft 385 kts 189°
2026-05-03 22:51 39.73778 3.09234 13415 ft 355 kts 189°
2026-05-03 22:52 39.71415 3.08960 13282 ft 327 kts 189°
2026-05-03 22:52 39.69233 3.08722 13101 ft 304 kts 189°
2026-05-03 22:52 39.67200 3.08510 12968 ft 282 kts 189°
2026-05-03 22:52 39.65320 3.08327 12636 ft 271 kts 189°
2026-05-03 22:53 39.64054 3.08204 12295 ft 268 kts 189°
2026-05-03 22:53 39.62207 3.08019 11701 ft 266 kts 189°
2026-05-03 22:53 39.59674 3.07925 10507 ft 284 kts 173°
2026-05-03 22:53 39.57847 3.08941 9862 ft 291 kts 146°
2026-05-03 22:54 39.56879 3.10202 9397 ft 295 kts 127°
2026-05-03 22:54 39.56007 3.13504 8533 ft 300 kts 91°
2026-05-03 22:54 39.56426 3.16125 8131 ft 298 kts 64°
2026-05-03 22:54 39.57661 3.18230 7739 ft 294 kts 36°
2026-05-03 22:55 39.58837 3.19126 7565 ft 289 kts 18°
2026-05-03 22:55 39.60788 3.19494 7318 ft 282 kts 350°
2026-05-03 22:55 39.62603 3.18695 7075 ft 274 kts 323°
2026-05-03 22:55 39.64020 3.17153 6875 ft 264 kts 313°
2026-05-03 22:56 39.65326 3.15521 6748 ft 251 kts 312°
2026-05-03 22:56 39.66548 3.13972 6632 ft 239 kts 312°
2026-05-03 22:56 39.67711 3.12494 6516 ft 229 kts 311°
2026-05-03 22:56 39.68535 3.10838 6388 ft 212 kts 282°
2026-05-03 22:57 39.68769 3.09002 6268 ft 201 kts 274°
2026-05-03 22:57 39.68880 3.07257 6157 ft 189 kts 272°
2026-05-03 22:57 39.68952 3.05596 5840 ft 186 kts 265°
2026-05-03 22:57 39.68624 3.04008 5508 ft 182 kts 240°
2026-05-03 22:58 39.67963 3.02585 5056 ft 188 kts 238°
2026-05-03 22:58 39.67271 3.01110 4550 ft 195 kts 237°
2026-05-03 22:58 39.66573 2.99621 4155 ft 196 kts 237°
2026-05-03 22:58 39.65881 2.98145 3862 ft 191 kts 237°
2026-05-03 22:59 39.65202 2.96696 3606 ft 185 kts 237°
2026-05-03 22:59 39.64544 2.95294 3366 ft 179 kts 237°
2026-05-03 22:59 39.63906 2.93934 3131 ft 174 kts 237°
2026-05-03 22:59 39.63289 2.92621 2905 ft 170 kts 236°
2026-05-03 23:00 39.62686 2.91337 2685 ft 165 kts 236°
2026-05-03 23:00 39.62095 2.90079 2466 ft 161 kts 236°
2026-05-03 23:00 39.61517 2.88852 2247 ft 158 kts 235°
2026-05-03 23:00 39.60944 2.87634 2036 ft 158 kts 236°
2026-05-03 23:01 39.60374 2.86423 1831 ft 157 kts 236°
2026-05-03 23:01 39.59806 2.85217 1616 ft 157 kts 236°
2026-05-03 23:01 39.59244 2.84022 1407 ft 156 kts 237°
2026-05-03 23:01 39.58700 2.82866 1228 ft 144 kts 236°
2026-05-03 23:02 39.58196 2.81797 1035 ft 138 kts 238°
2026-05-03 23:02 39.57701 2.80750 878 ft 136 kts 236°
2026-05-03 23:02 39.57196 2.79702 692 ft 137 kts 237°
2026-05-03 23:02 39.56696 2.78645 512 ft 138 kts 238°
2026-05-03 23:03 39.56206 2.77578 331 ft 138 kts 240°
2026-05-03 23:03 39.55714 2.76522 149 ft 137 kts 238°
2026-05-03 23:03 39.55227 2.75495 32 ft 126 kts 238°
2026-05-03 23:03 39.54848 2.74703 30 ft 79 kts 238°
2026-05-03 23:04 39.54651 2.74282 30 ft 37 kts 239°
2026-05-03 23:04 39.54555 2.74002 30 ft 33 kts 260°
2026-05-03 23:04 39.54549 2.73804 30 ft 14 kts 269°
2026-05-03 23:04 39.54600 2.73741 30 ft 11 kts 15°
2026-05-03 23:05 39.54643 2.73814 30 ft 10 kts 60°
2026-05-03 23:05 39.54677 2.73887 30 ft 10 kts 58°
2026-05-03 23:05 39.54728 2.73991 30 ft 17 kts 57°
2026-05-03 23:05 39.54786 2.74111 30 ft 11 kts 49°
2026-05-03 23:06 39.54861 2.74102 30 ft 14 kts 329°
2026-05-03 23:06 39.54950 2.74029 30 ft 17 kts 327°
2026-05-03 23:06 39.55061 2.73942 30 ft 21 kts 330°
2026-05-03 23:06 39.55199 2.73836 30 ft 26 kts 328°
2026-05-03 23:07 39.55366 2.73703 30 ft 16 kts 330°
2026-05-03 23:07 39.55474 2.73618 30 ft 20 kts 328°
2026-05-03 23:07 39.55509 2.73569 30 ft 7 kts 275°
2026-05-03 23:07 39.55461 2.73476 30 ft 18 kts 235°
2026-05-03 23:08 39.55390 2.73327 30 ft 21 kts 237°
2026-05-03 23:08 39.55306 2.73151 30 ft 24 kts 239°
2026-05-03 23:08 39.55216 2.72964 30 ft 25 kts 238°
2026-05-03 23:08 39.55122 2.72769 30 ft 26 kts 238°
2026-05-03 23:09 39.55049 2.72611 30 ft 4 kts 240°
2026-05-03 23:09 39.55028 2.72587 30 ft 4 kts 184°
2026-05-03 23:09 39.55004 2.72602 30 ft 4 kts 154°
2026-05-03 23:09 39.54973 2.72626 30 ft 2 kts 148°
2026-05-03 23:10 39.54968 2.72630 30 ft 0 kts 148°